Temp
-17 -16 -16 -15 -14 -15 -15 -14 -13 -15 -15 -15 -16 -16 -15 -15 -15 -15 -16 -16 -15 -15 -16 -16 -16 -15 -15 -15 -15 -15 -15 -15 -15 -15 -15 -15 -16 -16 -16 -16 -16 -17 -17
-17 -17 -16 -17 -17 -17 -16 -15 -15 -16 -16 -17 -16 -16 -15 -16 -16 -15 -15 -16 -16 -16 -16 -16 -16 -16 -16 -15 -15 -15 -15 -16 -16 -16 -17 -16 -17 -17 -17 -17 -17 -17 -18
-18 -17 -17 -17 -18 -18 -17 -17 -17 -17 -17 -17 -17 -18 -18 -18 -18 -17 -17 -16 -16 -16 -16 -16 -16 -16 -17 -16 -16 -16 -16 -16 -17 -17 -17 -18 -17 -18 -18 -18 -19 -18 -19
-18 -18 -18 -18 -18 -18 -19 -17 -18 -18 -18 -18 -17 -17 -18 -18 -18 -17 -17 -17 -17 -16 -17 -17 -17 -17 -17 -17 -17 -16 -17 -17 -17 -17 -17 -17 -17 -18 -18 -19 -19 -19 -20
-19 -18 -18 -19 -19 -18 -19 -19 -18 -18 -18 -19 -18 -18 -18 -18 -18 -18 -17 -18 -17 -17 -17 -18 -18 -18 -17 -17 -17 -17 -17 -18 -18 -18 -18 -18 -19 -19 -19 -19 -20 -20 -20
-19 -19 -19 -19 -19 -19 -19 -19 -19 -19 -20 -20 -19 -18 -18 -18 -18 -18 -18 -18 -18 -18 -17 -18 -18 -18 -18 -18 -18 -18 -18 -18 -18 -19 -19 -19 -19 -20 -20 -20 -20 -20 -21
-20 -20 -19 -19 -19 -19 -19 -19 -19 -20 -21 -21 -20 -19 -19 -18 -18 -18 -18 -18 -18 -18 -18 -18 -17 -18 -18 -18 -18 -18 -19 -19 -19 -19 -20 -20 -19 -20 -21 -21 -21 -21 -21
-22 -21 -21 -22 -21 -21 -20 -21 -21 -21 -21 -21 -20 -20 -19 -19 -19 -19 -18 -19 -18 -18 -18 -18 -18 -18 -18 -18 -19 -19 -19 -19 -20 -20 -20 -20 -20 -20 -21 -21 -21 -22 -22
-22 -22 -22 -22 -22 -22 -21 -22 -22 -22 -21 -21 -21 -21 -20 -20 -19 -19 -20 -19 -19 -18 -18 -18 -19 -19 -19 -19 -20 -20 -20 -20 -20 -20 -21 -21 -21 -21 -21 -21 -22 -22 -22
-24 -23 -23 -22 -22 -22 -23 -22 -22 -21 -21 -21 -21 -21 -21 -21 -21 -21 -21 -21 -20 -19 -19 -19 -19 -19 -19 -20 -20 -20 -20 -20 -20 -21 -22 -21 -21 -22 -22 -22 -22 -22 -22
-26 -25 -25 -24 -23 -23 -23 -23 -23 -22 -21 -21 -21 -21 -22 -21 -21 -21 -21 -20 -20 -20 -20 -20 -20 -20 -20 -20 -20 -20 -21 -21 -21 -22 -22 -22 -22 -22 -22 -22 -22 -23 -23
-27 -27 -26 -26 -25 -24 -24 -24 -24 -23 -23 -22 -22 -21 -21 -21 -21 -22 -21 -21 -21 -21 -21 -21 -20 -20 -21 -21 -20 -21 -22 -21 -21 -22 -22 -23 -22 -23 -23 -23 -23 -22 -23
-28 -27 -27 -27 -26 -26 -25 -25 -25 -25 -24 -23 -24 -23 -23 -22 -22 -22 -22 -22 -21 -21 -21 -21 -21 -21 -21 -21 -21 -21 -22 -22 -22 -23 -22 -23 -23 -23 -24 -23 -23 -23 -24
-29 -28 -27 -27 -27 -27 -27 -26 -26 -26 -25 -26 -25 -25 -24 -23 -22 -22 -23 -23 -22 -23 -23 -22 -22 -22 -22 -21 -22 -22 -22 -22 -23 -22 -22 -23 -23 -24 -23 -23 -24 -24 -25
-31 -30 -29 -29 -28 -27 -27 -27 -27 -26 -26 -26 -26 -25 -25 -24 -23 -23 -23 -23 -22 -22 -22 -23 -23 -22 -22 -22 -22 -22 -23 -23 -23 -23 -23 -23 -24 -24 -24 -24 -25 -26 -26
-31 -31 -31 -30 -30 -29 -28 -27 -28 -27 -27 -27 -26 -26 -25 -25 -24 -25 -25 -24 -23 -22 -23 -23 -23 -23 -22 -23 -22 -22 -23 -23 -23 -23 -24 -24 -24 -24 -25 -25 -26 -26 -27
-32 -32 -31 -31 -31 -30 -29 -28 -27 -28 -27 -27 -27 -25 -25 -25 -26 -26 -26 -26 -24 -23 -22 -22 -22 -23 -22 -22 -22 -23 -23 -24 -23 -23 -23 -24 -24 -24 -25 -26 -26 -26 -27
-30 -30 -30 -30 -31 -31 -30 -30 -29 -28 -29 -28 -28 -27 -25 -25 -25 -26 -26 -26 -24 -24 -23 -23 -23 -23 -23 -24 -24 -24 -24 -24 -24 -24 -24 -24 -25 -26 -26 -27 -27 -28 -28
-30 -30 -30 -30 -30 -31 -31 -31 -31 -30 -30 -30 -29 -28 -27 -26 -26 -26 -26 -25 -25 -25 -24 -24 -25 -25 -25 -25 -26 -26 -26 -26 -26 -25 -25 -26 -26 -26 -27 -28 -29 -29 -29
-30 -30 -30 -31 -31 -31 -31 -31 -31 -31 -31 -31 -30 -30 -29 -27 -27 -26 -27 -26 -25 -25 -25 -25 -26 -26 -26 -25 -25 -26 -26 -26 -26 -26 -26 -26 -26 -27 -28 -28 -29 -30 -30
-31 -32 -32 -32 -32 -32 -32 -32 -32 -32 -32 -32 -32 -31 -31 -30 -28 -28 -28 -28 -26 -26 -25 -26 -27 -26 -25 -25 -26 -26 -26 -26 -26 -27 -27 -28 -29 -29 -29 -30 -31 -31 -31
-32 -33 -33 -33 -33 -33 -33 -33 -33 -33 -33 -33 -33 -33 -32 -31 -31 -30 -30 -30 -30 -30 -28 -27 -27 -27 -27 -26 -26 -27 -27 -27 -28 -30 -30 -30 -31 -31 -31 -32 -32 -32 -32
-32 -32 -32 -33 -34 -34 -34 -34 -34 -34 -34 -34 -34 -33 -33 -33 -33 -32 -32 -32 -32 -31 -30 -29 -28 -28 -28 -28 -28 -29 -29 -30 -31 -31 -31 -31 -32 -32 -32 -32 -33 -33 -33
-31 -32 -32 -32 -33 -33 -33 -34 -34 -34 -34 -34 -34 -34 -34 -34 -34 -34 -33 -32 -32 -32 -31 -31 -31 -30 -30 -31 -31 -31 -31 -31 -31 -32 -32 -32 -32 -33 -33 -34 -34 -34 -34
-32 -32 -32 -32 -32 -32 -33 -32 -33 -33 -33 -33 -34 -34 -34 -34 -34 -33 -33 -33 -33 -33 -33 -33 -33 -32 -32 -32 -32 -31 -31 -31 -32 -32 -33 -33 -34 -34 -34 -35 -35 -35 -35
-32 -32 -32 -31 -32 -32 -32 -32 -32 -32 -32 -33 -33 -33 -33 -33 -33 -33 -33 -33 -33 -33 -33 -33 -33 -32 -32 -32 -32 -32 -32 -32 -33 -33 -34 -34 -35 -35 -35 -35 -35 -35 -35
Height
5639 5639 5639 5638 5637 5638 5638 5640 5638 5638 5638 5638 5639 5642 5644 5646 5647 5649 5652 5653 5655 5653 5653 5652 5651 5651 5652 5652 5652 5652 5652 5652 5652 5652 5652 5652 5651 5652 5652 5653 5653 5651 5650
5616 5616 5617 5618 5618 5619 5619 5620 5622 5624 5626 5627 5627 5628 5630 5631 5631 5633 5635 5635 5636 5636 5637 5636 5636 5635 5634 5634 5635 5636 5636 5636 5637 5637 5636 5637 5638 5638 5637 5634 5634 5633 5631
5598 5597 5597 5596 5596 5598 5598 5601 5603 5605 5608 5606 5607 5610 5611 5612 5613 5614 5615 5616 5617 5618 5619 5619 5619 5618 5618 5617 5618 5619 5621 5623 5622 5621 5621 5620 5622 5622 5621 5618 5616 5617 5616
5573 5575 5575 5575 5575 5575 5576 5579 5579 5582 5585 5585 5585 5587 5589 5590 5592 5593 5593 5595 5595 5598 5599 5599 5600 5600 5601 5600 5601 5602 5603 5604 5605 5605 5605 5606 5606 5606 5605 5604 5603 5603 5599
5550 5549 5551 5552 5550 5552 5553 5555 5556 5558 5560 5561 5563 5565 5567 5570 5571 5573 5572 5573 5575 5577 5579 5580 5582 5582 5582 5582 5583 5584 5585 5586 5587 5588 5588 5588 5588 5588 5588 5587 5586 5585 5582
5523 5523 5523 5524 5527 5526 5527 5531 5531 5532 5533 5536 5539 5541 5544 5548 5551 5551 5551 5552 5555 5556 5559 5561 5563 5564 5565 5565 5565 5565 5566 5567 5567 5568 5569 5569 5570 5571 5571 5570 5569 5568 5566
5495 5496 5497 5500 5501 5500 5500 5502 5504 5507 5510 5512 5516 5519 5522 5526 5526 5528 5530 5531 5534 5536 5538 5542 5544 5545 5545 5547 5547 5546 5546 5548 5549 5549 5550 5550 5550 5552 5553 5552 5551 5549 5548
5467 5467 5467 5468 5471 5472 5473 5473 5476 5480 5483 5488 5491 5494 5498 5501 5502 5505 5507 5509 5512 5516 5519 5522 5523 5524 5524 5525 5525 5526 5527 5529 5529 5529 5528 5531 5529 5532 5533 5532 5532 5532 5529
5434 5436 5436 5435 5438 5441 5444 5445 5447 5451 5456 5462 5466 5469 5472 5474 5477 5481 5480 5484 5490 5496 5499 5501 5502 5503 5503 5505 5505 5507 5507 5507 5506 5506 5506 5508 5509 5511 5513 5513 5512 5513 5512
5400 5402 5405 5404 5406 5408 5412 5416 5416 5418 5426 5435 5441 5445 5448 5452 5452 5454 5455 5459 5465 5472 5476 5480 5482 5482 5481 5483 5485 5486 5485 5485 5485 5487 5488 5489 5490 5491 5491 5492 5492 5491 5488
5367 5367 5368 5369 5371 5373 5377 5384 5387 5393 5400 5407 5414 5420 5424 5427 5430 5431 5432 5436 5443 5445 5450 5456 5461 5461 5461 5460 5464 5464 5463 5463 5465 5468 5469 5469 5470 5470 5471 5472 5472 5470 5466
5336 5335 5334 5333 5336 5338 5341 5349 5353 5357 5367 5378 5383 5391 5396 5398 5404 5406 5410 5413 5418 5419 5424 5430 5434 5437 5436 5438 5443 5443 5443 5444 5448 5448 5448 5450 5450 5450 5450 5449 5450 5449 5444
5303 5303 5302 5301 5302 5304 5305 5313 5318 5327 5333 5344 5351 5359 5366 5370 5378 5382 5384 5389 5394 5397 5402 5404 5409 5411 5415 5415 5422 5422 5423 5427 5428 5427 5428 5429 5430 5430 5428 5427 5425 5424 5419
5265 5267 5268 5269 5272 5273 5275 5280 5285 5293 5302 5310 5319 5331 5338 5343 5354 5358 5360 5365 5371 5377 5380 5384 5387 5389 5393 5395 5398 5402 5406 5406 5407 5408 5408 5407 5407 5406 5406 5405 5402 5401 5397
5230 5232 5232 5233 5235 5239 5243 5247 5250 5261 5267 5278 5291 5300 5308 5320 5328 5330 5334 5338 5347 5356 5360 5360 5363 5367 5373 5376 5379 5384 5384 5384 5386 5386 5386 5387 5387 5384 5383 5382 5380 5378 5375
5201 5200 5198 5198 5199 5201 5206 5215 5218 5225 5234 5245 5258 5269 5281 5292 5300 5307 5308 5313 5321 5331 5335 5339 5342 5347 5352 5354 5356 5362 5361 5362 5364 5365 5366 5367 5365 5363 5362 5359 5358 5356 5354
5176 5174 5171 5170 5171 5172 5175 5180 5191 5195 5202 5214 5225 5238 5252 5265 5272 5281 5287 5290 5298 5306 5314 5317 5321 5326 5331 5334 5336 5337 5338 5340 5341 5344 5344 5346 5344 5342 5340 5337 5337 5335 5331
5155 5153 5151 5150 5148 5149 5150 5154 5160 5170 5177 5184 5193 5206 5222 5234 5244 5255 5265 5267 5275 5287 5293 5297 5301 5304 5308 5309 5311 5313 5314 5316 5320 5323 5323 5323 5322 5320 5318 5315 5313 5310 5307
5138 5135 5131 5130 5129 5129 5130 5133 5139 5145 5153 5161 5168 5179 5191 5203 5215 5227 5236 5244 5255 5264 5271 5277 5281 5283 5285 5286 5290 5291 5294 5295 5296 5299 5301 5301 5301 5298 5296 5293 5290 5287 5284
5125 5120 5116 5114 5112 5111 5113 5116 5121 5127 5134 5140 5147 5156 5163 5177 5189 5203 5212 5219 5228 5241 5252 5254 5258 5259 5263 5267 5269 5272 5273 5276 5277 5278 5279 5279 5278 5275 5272 5269 5266 5264 5263
5114 5108 5104 5101 5100 5100 5101 5103 5108 5113 5119 5125 5131 5137 5144 5155 5167 5179 5186 5195 5206 5217 5226 5231 5230 5236 5242 5246 5249 5251 5254 5256 5258 5258 5257 5255 5254 5253 5251 5249 5246 5245 5242
5110 5103 5099 5097 5096 5096 5097 5098 5101 5104 5108 5113 5117 5122 5129 5137 5148 5159 5168 5179 5187 5193 5197 5204 5210 5216 5219 5223 5228 5231 5234 5235 5236 5237 5237 5236 5234 5234 5233 5230 5228 5225 5222
5112 5106 5101 5098 5097 5097 5097 5098 5098 5099 5101 5104 5109 5114 5121 5129 5136 5144 5152 5159 5165 5172 5178 5184 5191 5197 5201 5205 5209 5211 5215 5216 5217 5218 5219 5218 5217 5216 5215 5212 5209 5206 5203
5115 5110 5106 5103 5101 5100 5099 5099 5099 5098 5099 5101 5105 5110 5116 5122 5129 5134 5139 5145 5152 5158 5164 5169 5174 5179 5183 5187 5191 5196 5199 5200 5202 5202 5201 5200 5199 5199 5197 5195 5193 5190 5185
5115 5111 5108 5105 5103 5102 5101 5100 5101 5102 5103 5105 5107 5111 5115 5120 5125 5129 5133 5137 5142 5148 5153 5158 5162 5166 5171 5175 5178 5181 5184 5186 5187 5186 5187 5186 5185 5183 5181 5180 5177 5173 5169
5123 5117 5111 5108 5106 5104 5102 5102 5102 5103 5105 5107 5109 5112 5115 5119 5123 5126 5130 5133 5137 5141 5145 5149 5153 5157 5161 5164 5167 5169 5171 5172 5173 5173 5173 5172 5170 5168 5166 5164 5161 5156 5150
Wind_Speed
57 61 63 63 65 57 61 66 68 62 60 60 59 58 59 60 62 64 66 62 61 59 55 56 57 56 54 53 54 54 55 55 56 57 57 58 59 60 58 58 58 60 64
62 62 65 58 57 58 63 68 67 61 60 61 62 61 60 67 72 73 71 65 63 61 58 56 56 59 59 58 57 60 60 59 59 60 55 57 57 56 56 56 59 60 60
70 70 68 66 61 60 62 65 69 68 69 69 69 69 70 69 72 75 72 71 66 64 63 60 59 59 60 63 63 63 62 64 59 56 56 56 58 58 57 56 54 56 52
78 75 74 71 69 63 61 73 71 66 70 76 74 71 70 73 74 77 76 72 69 69 68 66 65 64 64 64 66 66 67 65 67 64 63 61 63 60 57 56 55 52 53
84 81 82 76 75 74 70 70 72 74 76 74 79 77 76 78 79 79 79 75 74 73 70 70 69 67 65 66 66 67 68 67 69 69 66 61 59 58 60 58 56 55 58
83 87 90 88 87 88 81 84 83 80 78 79 79 81 80 77 79 77 76 72 75 76 73 69 67 68 71 71 69 70 70 68 68 64 62 59 59 59 58 56 55 56 61
85 87 92 95 98 103 100 99 93 76 76 79 80 83 83 85 78 78 77 76 76 75 73 71 71 71 74 74 77 74 70 68 68 66 63 66 64 60 62 57 56 58 64
90 88 90 91 93 91 94 80 82 78 75 80 83 83 86 84 79 85 86 81 82 80 75 71 74 75 79 81 82 78 69 70 66 66 69 70 65 69 63 59 58 59 63
103 97 94 97 93 87 90 85 80 77 79 78 84 86 89 80 81 91 83 88 86 83 85 77 72 77 87 82 74 70 69 66 63 66 66 60 63 63 64 63 60 64 66
102 103 102 99 103 97 87 86 83 83 84 82 81 85 84 81 77 79 83 87 91 85 80 77 79 72 82 73 63 69 68 63 63 64 55 57 62 63 65 63 68 67 66
96 98 101 103 111 111 107 103 93 90 91 90 86 89 87 84 83 87 84 85 89 89 97 75 73 68 75 65 63 60 55 55 58 59 64 65 64 65 67 68 70 72 73
90 92 96 99 105 109 108 103 102 103 99 105 103 100 90 82 83 83 78 72 72 76 74 69 67 80 60 66 66 59 59 61 62 65 65 68 67 65 66 70 72 75 80
93 93 94 94 96 99 103 101 102 102 103 105 99 88 85 84 83 78 69 64 60 56 64 63 61 65 63 64 64 60 60 58 68 67 66 70 71 67 68 73 75 76 80
90 91 93 95 95 96 96 96 96 96 97 89 87 83 82 77 80 75 65 70 67 59 53 55 63 63 65 61 59 59 64 62 66 69 68 70 68 68 74 80 81 82 81
82 81 83 85 89 92 94 93 93 90 89 88 84 77 68 68 70 71 71 63 71 64 63 59 64 64 59 63 71 66 63 62 66 67 73 71 73 78 79 80 84 84 80
71 71 73 75 77 80 84 86 87 88 86 84 88 77 72 68 71 65 67 68 64 70 65 67 62 68 67 68 76 73 63 61 64 70 65 70 74 78 80 80 79 80 82
62 61 62 65 67 70 74 76 78 78 81 82 86 89 81 77 72 73 69 74 73 77 72 73 70 70 74 78 85 69 61 62 68 72 72 72 76 82 83 76 78 79 79
54 53 52 53 55 59 62 65 67 69 69 73 79 87 95 93 95 88 80 77 76 71 66 71 71 74 70 69 65 63 62 64 70 78 75 74 72 70 73 74 73 76 78
49 50 50 50 51 51 52 54 55 57 58 61 66 73 81 86 94 94 84 78 78 76 70 65 62 56 57 59 57 53 54 60 62 66 69 72 75 78 77 74 75 74 74
38 41 43 44 44 42 42 43 45 47 46 49 53 60 67 74 77 79 80 81 82 77 71 63 63 67 68 66 67 68 65 65 68 75 78 75 73 75 76 77 76 71 66
31 34 33 29 27 27 28 30 33 34 34 35 40 48 53 59 68 73 72 78 82 84 78 69 71 79 78 73 74 73 70 69 69 66 68 67 67 68 70 66 63 62 60
27 20 15 13 13 13 13 15 18 21 24 27 32 37 43 47 52 57 60 61 61 62 71 75 72 74 70 74 76 71 69 65 64 61 60 58 57 56 57 58 57 57 58
25 25 22 17 14 11 11 10 9 11 16 20 27 31 34 34 36 40 46 54 58 65 62 67 72 70 65 64 61 60 58 52 50 51 51 52 52 54 55 55 55 55 57
23 21 20 18 16 15 14 13 11 7 4 9 14 17 16 18 23 28 33 39 47 53 56 55 52 52 50 48 46 48 51 50 50 47 47 50 53 52 52 51 51 53 55
24 19 18 16 14 12 11 10 9 5 6 4 4 10 15 18 18 19 21 23 27 30 33 35 36 36 38 40 43 45 45 46 45 44 44 47 48 47 47 47 50 53 57
41 39 30 18 13 11 9 8 7 6 8 9 9 11 14 16 19 20 18 20 24 26 25 27 29 32 36 40 43 45 46 46 45 44 44 44 41 42 45 49 53 57 61
Wind_Direction
253 256 253 250 252 252 254 255 253 247 246 245 244 249 250 251 251 253 260 268 268 268 267 267 270 270 269 270 272 272 271 271 271 270 270 269 267 268 271 277 281 283 285
246 247 249 248 248 247 247 247 249 247 251 254 256 256 261 262 261 263 264 266 264 265 265 267 271 272 272 270 270 271 271 272 272 271 270 271 272 276 281 284 289 290 291
252 247 244 242 244 245 244 248 248 246 250 250 250 253 256 260 264 267 268 265 262 265 266 270 271 271 271 271 269 269 270 271 269 271 274 277 282 284 287 288 286 287 284
249 246 246 244 245 244 244 248 246 247 247 254 263 258 265 269 269 269 268 268 271 270 271 274 276 272 269 268 269 271 269 270 272 272 272 275 278 282 283 281 280 281 281
247 244 243 244 241 242 247 247 248 253 252 259 262 264 264 266 267 267 269 268 268 270 273 274 274 271 269 267 266 267 268 270 272 272 272 274 275 278 278 278 277 280 282
261 258 250 252 250 248 248 253 258 264 266 269 264 265 265 263 267 263 264 267 269 270 270 268 270 271 273 268 266 266 267 268 269 271 271 273 275 276 275 273 275 279 280
261 264 262 260 261 264 260 257 264 266 269 270 265 259 262 262 261 262 263 264 265 270 268 266 267 269 269 270 269 264 264 265 268 270 271 272 270 271 273 268 272 280 279
261 262 262 262 261 259 260 262 261 261 263 265 261 263 257 258 259 263 261 259 261 262 263 262 265 269 269 267 264 264 263 263 266 268 268 269 270 273 270 270 274 275 276
262 262 262 262 261 258 256 256 258 255 261 259 257 256 256 260 256 256 260 258 259 262 263 259 263 266 266 264 263 265 264 265 268 266 264 267 267 268 268 268 275 275 281
262 262 257 259 258 258 259 256 260 261 262 258 258 254 256 260 267 270 273 271 265 259 259 262 263 263 263 264 260 264 263 263 262 257 267 267 270 271 268 272 279 274 276
269 266 263 259 256 257 260 260 258 255 257 254 255 256 257 260 262 267 270 266 263 264 263 258 260 267 263 256 264 258 254 256 254 261 267 273 270 269 271 276 279 276 279
269 268 266 265 262 261 262 260 260 259 256 255 257 257 253 257 264 263 260 259 256 259 257 258 256 259 255 257 254 257 249 256 258 265 270 269 271 273 276 276 278 279 283
269 267 266 265 265 264 263 263 260 258 257 258 257 258 258 256 261 257 258 252 252 258 256 251 249 254 254 257 249 253 260 262 264 264 269 265 272 272 274 278 279 282 281
274 270 266 264 263 263 263 262 261 258 257 257 258 257 251 252 256 251 252 252 249 253 251 253 251 251 251 254 254 258 257 258 259 270 272 267 271 275 277 277 279 279 280
277 274 271 267 264 260 260 261 261 259 258 251 247 246 240 242 248 248 251 252 250 245 252 252 244 241 249 249 255 257 257 253 263 270 273 264 276 276 267 271 276 276 279
279 276 272 269 266 262 258 255 257 257 256 252 245 239 236 239 238 251 256 254 253 253 251 250 254 250 252 252 257 248 251 260 264 266 264 267 271 266 268 271 272 275 279
282 279 276 272 268 265 262 258 252 253 254 252 249 245 236 237 240 251 257 259 256 252 253 251 255 256 257 253 260 246 256 258 259 259 262 269 266 264 264 268 269 276 280
287 284 281 278 275 270 265 260 257 251 249 248 248 247 245 243 248 250 252 252 251 250 251 249 255 260 255 250 247 251 253 258 261 259 261 265 266 263 265 271 273 275 280
288 285 281 278 278 273 267 262 257 254 250 247 245 243 243 243 245 249 249 246 247 246 243 246 255 250 248 244 253 262 262 254 254 256 261 262 264 269 274 273 275 279 283
291 287 283 281 277 272 267 261 255 254 251 247 243 239 238 236 236 240 239 239 240 241 238 238 242 243 248 252 252 261 271 273 262 258 263 270 270 271 272 274 278 279 277
307 293 292 286 279 275 270 263 257 255 253 248 243 240 239 236 235 234 239 241 243 244 243 244 246 247 248 250 259 264 267 268 266 264 265 266 269 271 273 274 274 276 276
352 335 320 312 301 291 283 272 263 256 248 240 236 235 236 234 232 232 233 235 239 242 248 249 251 253 255 259 264 265 264 261 261 263 265 265 267 270 272 273 272 273 278
358 6 16 19 17 21 13 352 318 270 246 240 238 238 237 241 240 237 235 232 231 235 241 245 247 251 252 253 256 255 257 257 257 260 263 265 267 270 272 270 273 276 280
3 3 1 357 355 353 345 334 345 342 271 231 229 231 221 212 224 234 238 238 239 241 243 244 243 244 245 246 249 251 252 252 258 262 267 267 266 267 267 272 277 281 285
12 355 356 2 2 353 343 335 325 323 314 303 215 205 219 226 230 235 233 232 233 234 234 236 237 241 242 246 248 250 256 259 260 265 267 266 265 269 273 278 283 286 288
34 32 29 11 337 333 333 333 334 298 262 261 250 248 237 236 242 250 250 249 236 234 238 236 243 249 250 252 253 254 254 258 259 262 262 263 268 277 281 284 285 288 291